TimePDT,TemperatureF,Dew PointF,Humidity,Sea Level PressureIn,VisibilityMPH,Wind Direction,Wind SpeedMPH,Gust SpeedMPH,PrecipitationIn,Events,Conditions,WindDirDegrees,DateUTC
12:53 AM,57.0,37.0,47,30.06,10.0,WNW,8.1,-,N/A,,Clear,290,2013-07-14 07:53:00
1:53 AM,52.0,37.9,59,30.07,10.0,WNW,4.6,-,N/A,,Clear,300,2013-07-14 08:53:00
2:53 AM,55.9,36.0,47,30.07,10.0,WNW,5.8,-,N/A,,Clear,300,2013-07-14 09:53:00
3:53 AM,53.1,36.0,52,30.08,10.0,NNW,6.9,-,N/A,,Clear,330,2013-07-14 10:53:00
4:53 AM,53.1,35.1,50,30.08,10.0,Calm,Calm,-,N/A,,Clear,0,2013-07-14 11:53:00
5:53 AM,51.1,37.0,59,30.09,10.0,Calm,Calm,-,N/A,,Clear,0,2013-07-14 12:53:00
6:53 AM,59.0,37.9,46,30.09,10.0,North,3.5,-,N/A,,Clear,360,2013-07-14 13:53:00
7:53 AM,63.0,39.0,41,30.09,10.0,Calm,Calm,-,N/A,,Clear,0,2013-07-14 14:53:00
8:53 AM,66.0,41.0,40,30.08,10.0,Calm,Calm,-,N/A,,Clear,0,2013-07-14 15:53:00
9:53 AM,70.0,41.0,35,30.06,10.0,Calm,Calm,-,N/A,,Clear,0,2013-07-14 16:53:00
10:53 AM,75.0,39.9,28,30.03,10.0,SSW,5.8,-,N/A,,Clear,200,2013-07-14 17:53:00
11:53 AM,80.1,42.1,26,30.00,10.0,SSW,8.1,-,N/A,,Clear,210,2013-07-14 18:53:00
12:53 PM,84.0,37.0,19,29.98,10.0,SW,13.8,23.0,N/A,,Clear,220,2013-07-14 19:53:00
1:53 PM,88.0,33.1,14,29.95,10.0,SW,11.5,21.9,N/A,,Clear,230,2013-07-14 20:53:00
2:53 PM,89.1,28.9,12,29.91,10.0,SSW,13.8,26.5,N/A,,Clear,200,2013-07-14 21:53:00
3:53 PM,90.0,28.9,11,29.88,10.0,SSW,11.5,17.3,N/A,,Clear,210,2013-07-14 22:53:00
4:53 PM,89.1,32.0,13,29.86,10.0,South,11.5,-,N/A,,Clear,180,2013-07-14 23:53:00
5:53 PM,89.1,32.0,13,29.83,10.0,SSE,10.4,-,N/A,,Clear,160,2013-07-15 00:53:00
6:53 PM,88.0,28.9,12,29.81,10.0,South,12.7,19.6,N/A,,Clear,190,2013-07-15 01:53:00
7:53 PM,84.0,30.9,15,29.81,10.0,SSW,9.2,-,N/A,,Clear,200,2013-07-15 02:53:00
8:53 PM,73.9,34.0,23,29.82,10.0,WNW,8.1,-,N/A,,Clear,290,2013-07-15 03:53:00
9:53 PM,77.0,32.0,19,29.84,10.0,Calm,Calm,-,N/A,,Clear,0,2013-07-15 04:53:00
10:53 PM,71.1,35.1,27,29.87,10.0,NNW,6.9,-,N/A,,Clear,330,2013-07-15 05:53:00
11:53 PM,71.1,41.0,34,29.89,10.0,North,10.4,-,N/A,,Clear,10,2013-07-15 06:53:00